Location: ??
(35.1714°N, 128.2806°E)
Time: 15:24:52
(UTC+00:00)

Cosmos 2082 Rocket - Pass Details

Date: 29 October 2020
Orbit: 833 x 854 km, 71.0° (Epoch: 01 December)

Event Time Altitude Azimuth Distance (km) Brightness Sun altitude
Exits shadow 20:39:20 21° 276° (W) 1,808 3.3 -14.2°
Maximum altitude 20:41:01 24° 301° (WNW) 1,680 3.2 -13.9°
Drops below altitude 10° 20:45:27 10° 354° (N) 2,449 4.5 -13.0°
Sets 20:48:24 0° 8° (N) 3,389 5.4 -12.4°
